Time,TemperatureF,DewpointF,PressureIn,WindDirection,WindDirectionDegrees,WindSpeedMPH,WindSpeedGustMPH,Humidity,HourlyPrecipIn,Conditions,Clouds,dailyrainin,SolarRadiationWatts/m^2,SoftwareType,DateUTC
2013-02-21 00:01:00,68.0,56.0,-100.00,NE,39,11.0,43.0,66,0.02,,,0.03,0.000000,,2013-02-21 10:01:00,
2013-02-21 00:11:00,68.0,56.0,-100.00,NE,39,11.0,43.0,66,0.02,,,0.03,0.000000,,2013-02-21 10:11:00,
2013-02-21 00:21:00,68.0,56.0,-100.00,NE,39,11.0,43.0,66,0.02,,,0.03,0.000000,,2013-02-21 10:21:00,
2013-02-21 00:31:00,68.0,56.0,-100.00,NE,39,11.0,43.0,66,0.02,,,0.03,0.000000,,2013-02-21 10:31:00,
2013-02-21 00:51:00,68.0,57.0,-100.00,NNE,18,13.0,36.0,69,0.03,,,0.06,0.000000,,2013-02-21 10:51:00,
2013-02-21 01:01:00,68.0,57.0,-100.00,NNE,18,13.0,36.0,69,0.03,,,0.06,0.000000,,2013-02-21 11:01:00,
2013-02-21 01:11:00,68.0,57.0,-100.00,NNE,18,13.0,36.0,69,0.03,,,0.06,0.000000,,2013-02-21 11:11:00,
2013-02-21 01:21:00,68.0,57.0,-100.00,NNE,18,13.0,36.0,69,0.03,,,0.06,0.000000,,2013-02-21 11:21:00,
2013-02-21 01:31:00,68.0,57.0,-100.00,NNE,18,13.0,36.0,69,0.03,,,0.06,0.000000,,2013-02-21 11:31:00,
2013-02-21 02:01:00,68.0,57.0,-100.00,NNE,33,14.0,39.0,68,0.00,,,0.06,0.000000,,2013-02-21 12:01:00,
2013-02-21 02:11:00,68.0,57.0,-100.00,NNE,33,14.0,39.0,68,0.00,,,0.06,0.000000,,2013-02-21 12:11:00,
2013-02-21 02:21:00,68.0,57.0,-100.00,NNE,33,14.0,39.0,68,0.00,,,0.06,0.000000,,2013-02-21 12:21:00,
2013-02-21 02:32:00,68.0,57.0,-100.00,NNE,33,14.0,39.0,68,0.00,,,0.06,0.000000,,2013-02-21 12:32:00,
2013-02-21 03:01:00,68.0,58.0,-100.00,ENE,67,11.0,32.0,70,0.00,,,0.06,0.000000,,2013-02-21 13:01:00,
2013-02-21 03:12:00,68.0,58.0,-100.00,ENE,67,11.0,32.0,70,0.00,,,0.06,0.000000,,2013-02-21 13:12:00,
2013-02-21 03:22:00,68.0,58.0,-100.00,ENE,67,11.0,32.0,70,0.00,,,0.06,0.000000,,2013-02-21 13:22:00,
2013-02-21 03:31:00,68.0,58.0,-100.00,ENE,67,11.0,32.0,70,0.00,,,0.06,0.000000,,2013-02-21 13:31:00,
2013-02-21 04:02:00,68.0,58.0,-100.00,NNW,338,8.0,40.0,71,0.02,,,0.08,0.000000,,2013-02-21 14:02:00,
2013-02-21 04:11:00,68.0,58.0,-100.00,NNW,338,8.0,40.0,71,0.02,,,0.08,0.000000,,2013-02-21 14:11:00,
2013-02-21 04:21:00,68.0,58.0,-100.00,NNW,338,8.0,40.0,71,0.02,,,0.08,0.000000,,2013-02-21 14:21:00,
2013-02-21 04:31:00,68.0,58.0,-100.00,NNW,338,8.0,40.0,71,0.02,,,0.08,0.000000,,2013-02-21 14:31:00,
2013-02-21 05:01:00,67.0,60.0,-100.00,SSW,208,5.0,21.0,79,0.00,,,0.08,0.000000,,2013-02-21 15:01:00,
2013-02-21 05:12:00,67.0,60.0,-100.00,SSW,208,5.0,21.0,79,0.00,,,0.08,0.000000,,2013-02-21 15:12:00,
2013-02-21 05:21:00,67.0,60.0,-100.00,SSW,208,5.0,21.0,79,0.00,,,0.08,0.000000,,2013-02-21 15:21:00,
2013-02-21 05:31:00,67.0,60.0,-100.00,SSW,208,5.0,21.0,79,0.00,,,0.08,0.000000,,2013-02-21 15:31:00,
2013-02-21 06:01:00,66.0,58.0,-100.00,SSW,212,7.0,19.0,76,0.00,,,0.08,0.000000,,2013-02-21 16:01:00,
2013-02-21 06:12:00,66.0,58.0,-100.00,SSW,212,7.0,19.0,76,0.00,,,0.08,0.000000,,2013-02-21 16:12:00,
2013-02-21 06:21:00,66.0,58.0,-100.00,SSW,212,7.0,19.0,76,0.00,,,0.08,0.000000,,2013-02-21 16:21:00,
2013-02-21 06:31:00,66.0,58.0,-100.00,SSW,212,7.0,19.0,76,0.00,,,0.08,0.000000,,2013-02-21 16:31:00,
2013-02-21 07:01:00,67.0,60.0,-100.00,SE,137,7.0,20.0,79,0.01,,,0.09,0.000000,,2013-02-21 17:01:00,
2013-02-21 07:11:00,67.0,60.0,-100.00,SE,137,7.0,20.0,79,0.01,,,0.09,0.000000,,2013-02-21 17:11:00,
2013-02-21 07:21:00,67.0,60.0,-100.00,SE,137,7.0,20.0,79,0.01,,,0.09,0.000000,,2013-02-21 17:21:00,
2013-02-21 07:32:00,67.0,60.0,-100.00,SE,137,7.0,20.0,79,0.01,,,0.09,0.000000,,2013-02-21 17:32:00,
2013-02-21 08:01:00,67.0,61.0,-100.00,North,350,5.0,22.0,82,0.00,,,0.09,0.000000,,2013-02-21 18:01:00,
2013-02-21 08:11:00,67.0,61.0,-100.00,North,350,5.0,22.0,82,0.00,,,0.09,0.000000,,2013-02-21 18:11:00,
2013-02-21 08:22:00,67.0,61.0,-100.00,North,350,5.0,22.0,82,0.00,,,0.09,0.000000,,2013-02-21 18:22:00,
2013-02-21 08:31:00,67.0,61.0,-100.00,North,350,5.0,22.0,82,0.00,,,0.09,0.000000,,2013-02-21 18:31:00,
2013-02-21 09:01:00,68.0,61.0,-100.00,North,358,9.0,20.0,78,0.00,,,0.09,15.000000,,2013-02-21 19:01:00,
2013-02-21 09:11:00,68.0,61.0,-100.00,North,358,9.0,20.0,78,0.00,,,0.09,15.000000,,2013-02-21 19:11:00,
2013-02-21 09:21:00,68.0,61.0,-100.00,North,358,9.0,20.0,78,0.00,,,0.09,15.000000,,2013-02-21 19:21:00,
2013-02-21 09:31:00,68.0,61.0,-100.00,North,358,9.0,20.0,78,0.00,,,0.09,15.000000,,2013-02-21 19:31:00,
2013-02-21 09:52:00,69.0,62.0,-100.00,ENE,59,5.0,24.0,78,0.01,,,0.10,116.000000,,2013-02-21 19:52:00,
2013-02-21 10:01:00,69.0,62.0,-100.00,ENE,59,5.0,24.0,78,0.01,,,0.10,116.000000,,2013-02-21 20:01:00,
2013-02-21 10:11:00,69.0,62.0,-100.00,ENE,59,5.0,24.0,78,0.01,,,0.10,116.000000,,2013-02-21 20:11:00,
2013-02-21 10:21:00,69.0,62.0,-100.00,ENE,59,5.0,24.0,78,0.01,,,0.10,116.000000,,2013-02-21 20:21:00,
2013-02-21 10:31:00,69.0,62.0,-100.00,ENE,59,5.0,24.0,78,0.01,,,0.10,116.000000,,2013-02-21 20:31:00,
2013-02-21 11:02:00,69.0,63.0,-100.00,NE,51,6.0,19.0,80,0.11,,,0.20,354.000000,,2013-02-21 21:02:00,
2013-02-21 11:11:00,69.0,63.0,-100.00,NE,51,6.0,19.0,80,0.11,,,0.20,354.000000,,2013-02-21 21:11:00,
2013-02-21 11:21:00,69.0,63.0,-100.00,NE,51,6.0,19.0,80,0.11,,,0.20,354.000000,,2013-02-21 21:21:00,
2013-02-21 11:31:00,69.0,63.0,-100.00,NE,51,6.0,19.0,80,0.11,,,0.20,354.000000,,2013-02-21 21:31:00,
2013-02-21 12:01:00,70.0,63.0,-100.00,North,359,7.0,21.0,78,0.02,,,0.22,360.000000,,2013-02-21 22:01:00,
2013-02-21 12:11:00,70.0,63.0,-100.00,North,359,7.0,21.0,78,0.02,,,0.22,360.000000,,2013-02-21 22:11:00,
2013-02-21 12:21:00,70.0,63.0,-100.00,North,359,7.0,21.0,78,0.02,,,0.22,360.000000,,2013-02-21 22:21:00,
2013-02-21 12:31:00,70.0,63.0,-100.00,North,359,7.0,21.0,78,0.02,,,0.22,360.000000,,2013-02-21 22:31:00,
2013-02-21 13:01:00,69.0,61.0,-100.00,ESE,108,5.0,29.0,76,0.02,,,0.24,450.000000,,2013-02-21 23:01:00,
2013-02-21 13:11:00,69.0,61.0,-100.00,ESE,108,5.0,29.0,76,0.02,,,0.24,450.000000,,2013-02-21 23:11:00,
2013-02-21 13:21:00,69.0,61.0,-100.00,ESE,108,5.0,29.0,76,0.02,,,0.24,450.000000,,2013-02-21 23:21:00,
2013-02-21 13:31:00,69.0,61.0,-100.00,ESE,108,5.0,29.0,76,0.02,,,0.24,450.000000,,2013-02-21 23:31:00,
2013-02-21 13:52:00,67.0,61.0,-100.00,NNE,33,5.0,25.0,82,0.23,,,0.47,339.000000,,2013-02-21 23:52:00,
2013-02-21 14:01:00,67.0,61.0,-100.00,NNE,33,5.0,25.0,82,0.23,,,0.47,339.000000,,2013-02-22 00:01:00,
2013-02-21 14:11:00,67.0,61.0,-100.00,NNE,33,5.0,25.0,82,0.23,,,0.47,339.000000,,2013-02-22 00:11:00,
2013-02-21 14:21:00,67.0,61.0,-100.00,NNE,33,5.0,25.0,82,0.23,,,0.47,339.000000,,2013-02-22 00:21:00,
2013-02-21 14:31:00,67.0,61.0,-100.00,NNE,33,5.0,25.0,82,0.23,,,0.47,339.000000,,2013-02-22 00:31:00,
2013-02-21 15:01:00,67.0,63.0,-100.00,NNE,25,4.0,24.0,86,0.49,,,0.96,186.000000,,2013-02-22 01:01:00,
2013-02-21 15:11:00,67.0,63.0,-100.00,NNE,25,4.0,24.0,86,0.49,,,0.96,186.000000,,2013-02-22 01:11:00,
2013-02-21 15:21:00,67.0,63.0,-100.00,NNE,25,4.0,24.0,86,0.49,,,0.96,186.000000,,2013-02-22 01:21:00,
2013-02-21 15:32:00,67.0,63.0,-100.00,NNE,25,4.0,24.0,86,0.49,,,0.96,186.000000,,2013-02-22 01:32:00,
2013-02-21 16:02:00,69.0,64.0,-100.00,WNW,285,8.0,18.0,83,0.14,,,1.10,199.000000,,2013-02-22 02:02:00,
2013-02-21 16:11:00,69.0,64.0,-100.00,WNW,285,8.0,18.0,83,0.14,,,1.10,199.000000,,2013-02-22 02:11:00,
2013-02-21 16:21:00,69.0,64.0,-100.00,WNW,285,8.0,18.0,83,0.14,,,1.10,199.000000,,2013-02-22 02:21:00,
2013-02-21 16:31:00,69.0,64.0,-100.00,WNW,285,8.0,18.0,83,0.14,,,1.10,199.000000,,2013-02-22 02:31:00,
2013-02-21 17:01:00,68.0,62.0,-100.00,SE,140,10.0,34.0,80,0.25,,,1.35,316.000000,,2013-02-22 03:01:00,
2013-02-21 17:11:00,68.0,62.0,-100.00,SE,140,10.0,34.0,80,0.25,,,1.35,316.000000,,2013-02-22 03:11:00,
2013-02-21 17:21:00,68.0,62.0,-100.00,SE,140,10.0,34.0,80,0.25,,,1.35,316.000000,,2013-02-22 03:21:00,
2013-02-21 17:31:00,68.0,62.0,-100.00,SE,140,10.0,34.0,80,0.25,,,1.35,316.000000,,2013-02-22 03:31:00,
2013-02-21 18:01:00,67.0,60.0,-100.00,NNW,341,8.0,38.0,78,0.00,,,1.35,190.000000,,2013-02-22 04:01:00,
2013-02-21 18:11:00,67.0,60.0,-100.00,NNW,341,8.0,38.0,78,0.00,,,1.35,190.000000,,2013-02-22 04:11:00,
2013-02-21 18:21:00,67.0,60.0,-100.00,NNW,341,8.0,38.0,78,0.00,,,1.35,190.000000,,2013-02-22 04:21:00,
2013-02-21 18:31:00,67.0,60.0,-100.00,NNW,341,8.0,38.0,78,0.00,,,1.35,190.000000,,2013-02-22 04:31:00,
2013-02-21 19:01:00,68.0,59.0,-100.00,SE,146,12.0,36.0,74,0.00,,,1.35,99.000000,,2013-02-22 05:01:00,
2013-02-21 19:11:00,68.0,59.0,-100.00,SE,146,12.0,36.0,74,0.00,,,1.35,99.000000,,2013-02-22 05:11:00,
2013-02-21 19:22:00,68.0,59.0,-100.00,SE,146,12.0,36.0,74,0.00,,,1.35,99.000000,,2013-02-22 05:22:00,
2013-02-21 19:32:00,68.0,59.0,-100.00,SE,146,12.0,36.0,74,0.00,,,1.35,99.000000,,2013-02-22 05:32:00,
2013-02-21 20:01:00,69.0,61.0,-100.00,SSE,152,10.0,42.0,77,0.00,,,1.35,26.000000,,2013-02-22 06:01:00,
2013-02-21 20:11:00,69.0,61.0,-100.00,SSE,152,10.0,42.0,77,0.00,,,1.35,26.000000,,2013-02-22 06:11:00,
2013-02-21 20:21:00,69.0,61.0,-100.00,SSE,152,10.0,42.0,77,0.00,,,1.35,26.000000,,2013-02-22 06:21:00,
2013-02-21 20:31:00,69.0,61.0,-100.00,SSE,152,10.0,42.0,77,0.00,,,1.35,26.000000,,2013-02-22 06:31:00,
2013-02-21 21:01:00,67.0,60.0,-100.00,NNE,18,6.0,45.0,79,0.01,,,1.36,0.000000,,2013-02-22 07:01:00,
2013-02-21 21:11:00,67.0,60.0,-100.00,NNE,18,6.0,45.0,79,0.01,,,1.36,0.000000,,2013-02-22 07:11:00,
2013-02-21 21:21:00,67.0,60.0,-100.00,NNE,18,6.0,45.0,79,0.01,,,1.36,0.000000,,2013-02-22 07:21:00,
2013-02-21 21:31:00,67.0,60.0,-100.00,NNE,18,6.0,45.0,79,0.01,,,1.36,0.000000,,2013-02-22 07:31:00,
2013-02-21 21:52:00,69.0,62.0,-100.00,WSW,239,8.0,31.0,79,0.00,,,1.36,0.000000,,2013-02-22 07:52:00,
2013-02-21 22:01:00,69.0,62.0,-100.00,WSW,239,8.0,31.0,79,0.00,,,1.36,0.000000,,2013-02-22 08:01:00,
2013-02-21 22:11:00,69.0,62.0,-100.00,WSW,239,8.0,31.0,79,0.00,,,1.36,0.000000,,2013-02-22 08:11:00,
2013-02-21 22:21:00,69.0,62.0,-100.00,WSW,239,8.0,31.0,79,0.00,,,1.36,0.000000,,2013-02-22 08:21:00,
2013-02-21 22:31:00,69.0,62.0,-100.00,WSW,239,8.0,31.0,79,0.00,,,1.36,0.000000,,2013-02-22 08:31:00,
2013-02-21 23:03:00,70.0,62.0,-100.00,NE,34,5.0,39.0,75,0.00,,,1.36,0.000000,,2013-02-22 09:03:00,
2013-02-21 23:11:00,70.0,62.0,-100.00,NE,34,5.0,39.0,75,0.00,,,1.36,0.000000,,2013-02-22 09:11:00,
2013-02-21 23:21:00,70.0,62.0,-100.00,NE,34,5.0,39.0,75,0.00,,,1.36,0.000000,,2013-02-22 09:21:00,
2013-02-21 23:31:00,70.0,62.0,-100.00,NE,34,5.0,39.0,75,0.00,,,1.36,0.000000,,2013-02-22 09:31:00,